This demonstration page uses our WeatherBlox Daily Observations layout. Learn more.

Left ArrowRight Arrow

Hourly Observations for February 17, 2016

Temp ( °F °C ) Dew Point ( °F °C ) Humidity (%) Winds ( mph kmh ) Pressure ( in mb ) Visibility ( mi km ) Precip ( " mm )
12:58 am 00:58 Cloudy 32 -0.1 31 -0.4 98 98 ESE 3 6 30.09 1019 10 16 0.00 0.00
1:58 am 01:58 Cloudy 32 -0.1 30 -0.9 94 94 E 3 6 30.11 1020 10 16 0.00 0.00
2:58 am 02:58 Cloudy 31 -0.5 30 -0.9 97 97 SE 5 7 30.12 1020 10 16 0.00 0.00
3:58 am 03:58 Cloudy 31 -0.5 30 -1.1 96 96 E 5 7 30.12 1020 10 16 0.00 0.00
4:58 am 04:58 Clear 29 -1.4 28 -2 96 96 SE 6 9 30.13 1020 10 16 0.00 0.00
5:58 am 05:58 Clear 29 -1.5 29 -1.9 97 97 SE 8 13 30.14 1021 10 16 0.00 0.00
6:58 am 06:58 Clear 30 -1.2 29 -1.8 96 96 SE 10 17 30.14 1021 10 16 0.00 0.00
7:58 am 07:58 Sunny 31 -0.7 29 -1.5 94 94 ESE 12 19 30.16 1021 10 16 0.00 0.00
8:58 am 08:58 Sunny 33 0.8 31 -0.4 92 92 ESE 10 17 30.16 1022 10 16 0.00 0.00
9:58 am 09:58 Sunny 36 2.4 32 0.2 86 86 SE 13 20 30.16 1022 10 16 0.00 0.00
10:58 am 10:58 Partly Cloudy 39 3.8 33 0.8 81 81 SE 10 17 30.16 1021 10 16 0.00 0.00
11:58 am 11:58 Partly Cloudy 41 5.2 34 1.1 75 75 SSE 8 13 30.16 1021 10 16 0.00 0.00
12:58 pm 12:58 Sunny 44 6.5 34 1.3 70 70 SE 6 9 30.12 1020 10 16 0.00 0.00
1:58 pm 13:58 Sunny 46 7.7 35 1.9 67 67 ESE 2 4 30.11 1020 10 16 0.00 0.00
2:58 pm 14:58 Sunny 47 8.5 36 2.3 65 65 SE 3 6 30.11 1020 10 16 0.00 0.00
3:58 pm 15:58 Sunny 49 9.6 36 2.2 60 60 E 3 6 30.09 1019 10 16 0.00 0.00
4:58 pm 16:58 Sunny 48 8.8 37 2.6 65 65 E 5 7 30.09 1019 10 16 0.00 0.00
5:58 pm 17:58 Sunny 42 5.4 35 1.9 78 78 E 3 6 30.09 1019 10 16 0.00 0.00
6:58 pm 18:58 Clear 34 1.1 32 0.2 94 94 ENE 5 7 30.10 1019 10 16 0.00 0.00
7:58 pm 19:58 Clear 36 2.4 34 0.9 90 90 ENE 8 13 30.10 1019 10 16 0.00 0.00
8:58 pm 20:58 Clear 39 3.8 34 0.9 82 82 E 8 13 30.10 1019 10 16 0.00 0.00
9:58 pm 21:58 Clear 39 3.8 34 1.3 84 84 E 7 11 30.09 1019 10 16 0.00 0.00
10:58 pm 22:58 Clear 39 3.7 35 1.7 87 87 E 10 17 30.06 1018 10 16 0.00 0.00
11:58 pm 23:58 Clear 39 3.7 35 1.6 86 86 E 9 15 30.05 1018 10 16 0.00 0.00

Powered by AerisWeather